7L2IWN-13 Weather Reports


time (UTC)temp
C
wind
direction
speed
KPH
gust
KPH
rain 1hr
cm
rain 24hr
cm
rain mn
cm
humidity
%
barometer
mb
20260505160547 9 233 1.6 4.8 0.00 0.00 0.00 91 1021.1
20260505152946 9 252 0.0 0.0 0.00 0.00 0.00 91 1021.2
20260505151746 10 235 1.6 3.2 0.00 0.00 0.00 89 1021.2
20260505150545 10 228 1.6 3.2 0.00 0.00 0.00 89 1021.3
20260505140545 10 311 0.0 0.0 0.00 0.00 0.00 87 1021.2
20260505124145 11 139 0.0 0.0 0.00 0.00 0.00 84 1020.5
20260505122947 12 202 0.0 0.0 0.00 0.00 0.00 82 1020.4
20260505121818 12 271 0.0 0.0 0.00 0.00 0.00 81 1020.3
20260505120618 12 201 0.0 0.0 0.00 0.00 0.00 79 1020.2
20260505115419 12 216 1.6 3.2 0.00 0.00 0.00 78 1019.9
20260505114218 12 296 1.6 1.6 0.00 0.00 0.00 77 1019.9
20260505113018 13 158 3.2 4.8 0.00 0.00 0.00 75 1019.6
20260505111818 13 240 3.2 4.8 0.00 0.00 0.00 74 1019.2
20260505110619 13 231 1.6 3.2 0.00 0.00 0.00 73 1019.4
20260505101819 15 290 1.6 3.2 0.00 0.00 0.00 68 1018.4
20260505100617 15 304 0.0 0.0 0.00 0.00 0.00 65 1018.4
20260505095419 16 300 3.2 4.8 0.00 0.00 0.00 62 1018.4
20260505094219 17 170 4.8 11.3 0.00 0.00 0.00 54 1017.9
20260505093018 18 127 12.9 19.3 0.00 0.00 0.00 54 1018.1
20260505090619 18 119 20.9 27.4 0.00 0.00 0.00 52 1017.5
20260505085419 18 137 20.9 29.0 0.00 0.00 0.00 50 1017.5
20260505084219 19 130 19.3 27.4 0.00 0.00 0.00 48 1017.4
20260505083018 19 130 25.7 35.4 0.00 0.00 0.00 47 1017.1
20260505081819 20 173 20.9 40.2 0.00 0.00 0.00 45 1017.1
20260505080618 20 219 22.5 33.8 0.00 0.00 0.00 43 1017.0
20260505075417 20 187 11.3 22.5 0.00 0.00 0.00 42 1016.9
20260505074219 20 113 11.3 24.1 0.00 0.00 0.00 41 1017.1
20260505073017 20 86 9.7 24.1 0.00 0.00 0.00 40 1016.4
20260505071818 21 88 9.7 29.0 0.00 0.00 0.00 38 1016.6
20260505070619 21 61 11.3 27.4 0.00 0.00 0.00 37 1016.6
20260505065418 21 121 14.5 29.0 0.00 0.00 0.00 36 1016.5
20260505064219 21 42 9.7 16.1 0.00 0.00 0.00 35 1016.5
20260505063019 21 135 3.2 11.3 0.00 0.00 0.00 34 1016.4
20260505061818 21 172 3.2 8.0 0.00 0.00 0.00 33 1016.3
20260505060617 21 130 8.0 16.1 0.00 0.00 0.00 32 1016.3
20260505055418 22 163 8.0 12.9 0.00 0.00 0.00 31 1016.1
20260505053018 21 116 20.9 32.2 0.00 0.00 0.00 30 1016.8
20260505051817 22 101 19.3 29.0 0.00 0.00 0.00 30 1016.7
20260505050617 21 112 12.9 22.5 0.00 0.00 0.00 30 1016.8
20260505040619 21 9 8.0 12.9 0.00 0.00 0.00 30 1017.2
20260505035418 21 32 3.2 9.7 0.00 0.00 0.00 29 1017.2
20260505033019 21 19 4.8 8.0 0.00 0.00 0.00 28 1017.3
20260505031818 20 358 1.6 8.0 0.00 0.00 0.00 29 1017.4
20260505025418 20 51 9.7 19.3 0.00 0.00 0.00 28 1017.4
20260505024217 20 96 14.5 16.1 0.00 0.00 0.00 28 1017.4
20260505023018 20 69 4.8 9.7 0.00 0.00 0.00 28 1017.5
20260505021819 20 105 8.0 11.3 0.00 0.00 0.00 29 1017.9
20260505020618 20 84 8.0 16.1 0.00 0.00 0.00 30 1018.0
20260505015419 18 177 4.8 9.7 0.00 0.00 0.00 30 1017.6
20260505014217 19 22 8.0 14.5 0.00 0.00 0.00 31 1017.9
20260505013019 19 28 4.8 11.3 0.00 0.00 0.00 31 1018.0
20260505011818 18 82 8.0 11.3 0.00 0.00 0.00 31 1018.2
20260505005418 17 70 11.3 16.1 0.00 0.00 0.00 33 1018.0
20260505004218 17 63 8.0 12.9 0.00 0.00 0.00 34 1017.8
20260505003018 17 101 8.0 12.9 0.00 0.00 0.00 34 1017.8
20260505001818 17 11 0.0 4.8 0.00 0.00 0.00 37 1018.0
20260505000618 16 198 4.8 11.3 0.00 0.00 0.00 36 1017.9
20260504235417 16 178 1.6 3.2 0.00 0.00 0.00 37 1018.1
20260504234218 16 113 8.0 12.9 0.00 0.00 0.00 38 1017.9
20260504233017 16 72 0.0 3.2 0.00 0.00 0.00 38 1018.3
20260504231818 16 108 4.8 11.3 0.00 0.00 0.00 38 1018.3
20260504230620 16 101 1.6 4.8 0.00 0.00 0.00 39 1018.4
20260504225418 15 5 1.6 8.0 0.00 0.00 0.00 43 1018.3
20260504223018 15 109 0.0 0.0 0.00 0.00 0.00 50 1018.4
20260504221817 13 91 1.6 8.0 0.00 0.00 0.00 57 1018.4
20260504220620 13 118 0.0 3.2 0.00 0.00 0.00 54 1018.0
20260504215418 12 240 1.6 4.8 0.00 0.00 0.00 56 1017.9
20260504214218 11 209 3.2 4.8 0.00 0.00 0.00 59 1017.5
20260504213017 11 243 3.2 8.0 0.00 0.00 0.00 60 1017.5
20260504211819 10 294 8.0 11.3 0.00 0.00 0.00 63 1017.2
20260504210620 10 247 8.0 9.7 0.00 0.00 0.00 64 1017.1
20260504205417 10 272 3.2 4.8 0.00 0.00 0.00 61 1017.0
20260504204217 9 268 3.2 8.0 0.00 0.00 0.00 64 1016.9
20260504203017 8 252 8.0 11.3 0.00 0.00 0.00 70 1016.5
20260504201817 8 267 8.0 9.7 0.00 0.00 0.00 73 1016.5
20260504200617 8 206 3.2 3.2 0.00 0.05 0.00 73 1016.1
20260504195417 7 276 4.8 8.0 0.00 0.05 0.00 72 1015.9
20260504194218 7 224 4.8 8.0 0.00 0.46 0.00 74 1015.5
20260504193017 8 280 1.6 3.2 0.00 0.46 0.00 75 1015.6
20260504191817 8 287 4.8 8.0 0.00 0.46 0.00 74 1015.6
20260504190619 8 223 4.8 8.0 0.00 0.46 0.00 72 1015.1
20260504185417 8 259 4.8 8.0 0.00 0.46 0.00 73 1015.2
20260504184218 9 210 4.8 8.0 0.00 0.46 0.00 72 1015.1
20260504183016 10 202 4.8 8.0 0.00 0.61 0.00 68 1014.8
20260504181818 10 226 1.6 1.6 0.00 0.61 0.00 63 1014.8
20260504180619 10 262 3.2 4.8 0.00 0.61 0.00 60 1014.6
20260504175419 11 304 9.7 16.1 0.00 0.64 0.00 54 1014.3
20260504174217 11 302 9.7 14.5 0.00 0.64 0.00 57 1014.0
20260504173016 11 273 4.8 9.7 0.00 0.64 0.00 57 1014.0
20260504171816 12 295 3.2 8.0 0.00 0.64 0.00 58 1013.9